When you browse on this site, cookies collect data to enhance your experience and personalize the content and advertising you see.
Visit our Privacy Policy to learn more. By continuing to use the site, you agree to this use of cookies and data.
  • Em Portugal
  • Lista de países
  • Para 7 dias
  • Temperatura da água
  • Mapas de satélite
  • Mapa do tempo
  • Widgets de tempo
  • user-avatar
    Iniciar Sessão

    Previsão horária em Turnawiec

    Hoje, 24 Março, Domingo

    Tempo Temperatura Precipitação Vento Pressão Humidade
    00:00 +9°C° 0 mm 2 m/s 746 mmHg 66%
    01:00 +9°C° 0 mm 2 m/s 746 mmHg 71%
    02:00 +9°C° 0 mm 3 m/s 746 mmHg 77%
    03:00 +8°C° 0 mm 3 m/s 746 mmHg 83%
    04:00 +8°C° 0 mm 3 m/s 746 mmHg 89%
    05:00 +7°C° 0 mm 4 m/s 746 mmHg 87%
    06:00 +7°C° 0 mm 4 m/s 746 mmHg 85%
    07:00 +6°C° 0 mm 4 m/s 747 mmHg 84%
    08:00 +8°C° 0 mm 3 m/s 746 mmHg 77%
    09:00 +8°C° 0 mm 3 m/s 746 mmHg 70%
    10:00 +9°C° 0 mm 2 m/s 746 mmHg 64%
    11:00 +10°C° 0 mm 2 m/s 746 mmHg 58%
    12:00 +12°C° 0 mm 2 m/s 745 mmHg 52%
    13:00 +13°C° 0 mm 2 m/s 745 mmHg 46%
    14:00 +13°C° 0 mm 2 m/s 744 mmHg 44%
    15:00 +13°C° 0 mm 2 m/s 744 mmHg 43%
    16:00 +14°C° 0 mm 2 m/s 743 mmHg 41%
    17:00 +13°C° 0 mm 2 m/s 743 mmHg 43%
    18:00 +12°C° 0 mm 2 m/s 743 mmHg 44%
    19:00 +10°C° 0 mm 2 m/s 742 mmHg 46%
    20:00 +10°C° 0.3 mm 1 m/s 742 mmHg 50%
    21:00 +10°C° 0.3 mm 1 m/s 742 mmHg 54%
    22:00 +9°C° 0.3 mm 1 m/s 741 mmHg 58%
    23:00 +8°C° 0.3 mm 1 m/s 741 mmHg 62%

    Amanhã, 25 Março, Segunda-feira

    Tempo Temperatura Precipitação Vento Pressão Humidade
    00:00 +8°C° 0.3 mm 1 m/s 741 mmHg 66%
    01:00 +7°C° 0.3 mm 1 m/s 740 mmHg 70%
    02:00 +7°C° 0.2 mm 1 m/s 740 mmHg 72%
    03:00 +7°C° 0.2 mm 1 m/s 739 mmHg 74%
    04:00 +6°C° 0.2 mm 2 m/s 739 mmHg 76%
    05:00 +6°C° 0 mm 2 m/s 739 mmHg 76%
    06:00 +5°C° 0 mm 3 m/s 738 mmHg 75%
    07:00 +5°C° 0 mm 3 m/s 738 mmHg 74%
    08:00 +7°C° 0.1 mm 3 m/s 738 mmHg 68%
    09:00 +7°C° 0.1 mm 4 m/s 738 mmHg 62%
    10:00 +8°C° 0.1 mm 4 m/s 738 mmHg 56%
    11:00 +9°C° 0.1 mm 5 m/s 737 mmHg 50%
    12:00 +9°C° 0.1 mm 5 m/s 737 mmHg 45%
    13:00 +10°C° 0.1 mm 6 m/s 736 mmHg 39%
    14:00 +9°C° 0.1 mm 5 m/s 736 mmHg 42%
    15:00 +9°C° 0.1 mm 5 m/s 736 mmHg 45%
    16:00 +8°C° 0.1 mm 5 m/s 736 mmHg 47%
    17:00 +7°C° 0.1 mm 5 m/s 737 mmHg 53%
    18:00 +6°C° 0.1 mm 5 m/s 737 mmHg 59%
    19:00 +5°C° 0.1 mm 5 m/s 738 mmHg 64%
    20:00 +3°C° 0 mm 5 m/s 739 mmHg 66%
    21:00 +3°C° 0 mm 5 m/s 740 mmHg 68%
    22:00 +2°C° 0 mm 5 m/s 741 mmHg 70%
    23:00 +3°C° 0 mm 4 m/s 741 mmHg 73%

    Depois de amanhã, 26 Março, Terça-feira

    Tempo Temperatura Precipitação Vento Pressão Humidade
    00:00 +1°C° 0 mm 4 m/s 742 mmHg 76%
    01:00 +1°C° 0 mm 4 m/s 742 mmHg 79%
    02:00 0°C° 0 mm 4 m/s 743 mmHg 80%
    03:00 0°C° 0 mm 5 m/s 743 mmHg 82%
    04:00 0°C° 0 mm 5 m/s 743 mmHg 84%
    05:00 0°C° 0 mm 5 m/s 744 mmHg 83%
    06:00 0°C° 0 mm 5 m/s 745 mmHg 82%
    07:00 +1°C° 0 mm 5 m/s 745 mmHg 81%
    08:00 +2°C° 0 mm 5 m/s 746 mmHg 75%
    09:00 +3°C° 0 mm 5 m/s 746 mmHg 69%
    10:00 +5°C° 0 mm 5 m/s 747 mmHg 63%
    11:00 +5°C° 0 mm 5 m/s 746 mmHg 61%
    12:00 +5°C° 0 mm 6 m/s 746 mmHg 58%
    13:00 +5°C° 0 mm 6 m/s 746 mmHg 55%
    14:00 +7°C° 0 mm 6 m/s 746 mmHg 52%
    15:00 +7°C° 0 mm 6 m/s 746 mmHg 49%
    16:00 +8°C° 0 mm 6 m/s 746 mmHg 46%
    17:00 +7°C° 0 mm 5 m/s 746 mmHg 50%
    18:00 +6°C° 0 mm 4 m/s 746 mmHg 54%
    19:00 +5°C° 0 mm 3 m/s 746 mmHg 58%
    20:00 +5°C° 0 mm 4 m/s 747 mmHg 61%
    21:00 +4°C° 0 mm 4 m/s 747 mmHg 64%
    22:00 +4°C° 0 mm 4 m/s 747 mmHg 67%
    23:00 +4°C° 0 mm 3 m/s 747 mmHg 68%

    27 Março, Quarta-feira

    Tempo Temperatura Precipitação Vento Pressão Humidade
    00:00 +3°C° 0 mm 3 m/s 748 mmHg 70%
    01:00 +3°C° 0 mm 3 m/s 748 mmHg 72%
    02:00 +2°C° 0 mm 3 m/s 748 mmHg 76%
    03:00 +3°C° 0 mm 2 m/s 748 mmHg 81%
    04:00 +2°C° 0 mm 2 m/s 748 mmHg 85%
    05:00 +2°C° 0 mm 2 m/s 748 mmHg 84%
    06:00 +3°C° 0 mm 2 m/s 749 mmHg 83%
    07:00 +3°C° 0 mm 2 m/s 749 mmHg 82%
    08:00 +4°C° 0 mm 2 m/s 749 mmHg 73%
    09:00 +5°C° 0 mm 2 m/s 749 mmHg 64%
    10:00 +7°C° 0 mm 3 m/s 750 mmHg 55%
    11:00 +7°C° 0 mm 3 m/s 749 mmHg 51%
    12:00 +8°C° 0 mm 3 m/s 749 mmHg 48%
    13:00 +9°C° 0 mm 3 m/s 749 mmHg 45%
    14:00 +9°C° 0 mm 3 m/s 749 mmHg 45%
    15:00 +9°C° 0 mm 3 m/s 749 mmHg 45%
    16:00 +9°C° 0 mm 3 m/s 749 mmHg 46%
    17:00 +8°C° 0 mm 3 m/s 749 mmHg 50%
    18:00 +7°C° 0 mm 2 m/s 749 mmHg 55%
    19:00 +6°C° 0 mm 2 m/s 749 mmHg 60%
    20:00 +6°C° 0 mm 2 m/s 750 mmHg 64%
    21:00 +5°C° 0 mm 2 m/s 750 mmHg 67%
    22:00 +5°C° 0 mm 2 m/s 750 mmHg 71%
    23:00 +5°C° 0 mm 2 m/s 750 mmHg 73%

    28 Março, Quinta-feira

    Tempo Temperatura Precipitação Vento Pressão Humidade
    00:00 +4°C° 0 mm 2 m/s 750 mmHg 75%
    01:00 +4°C° 0 mm 2 m/s 750 mmHg 76%
    02:00 +4°C° 0 mm 2 m/s 750 mmHg 79%
    03:00 +4°C° 0 mm 2 m/s 750 mmHg 82%
    04:00 +3°C° 0 mm 2 m/s 750 mmHg 85%
    05:00 +4°C° 0.1 mm 2 m/s 750 mmHg 84%
    06:00 +4°C° 0.1 mm 2 m/s 750 mmHg 82%
    07:00 +5°C° 0.1 mm 2 m/s 751 mmHg 81%
    08:00 +6°C° 0.1 mm 2 m/s 751 mmHg 79%
    09:00 +7°C° 0.1 mm 2 m/s 751 mmHg 76%
    10:00 +7°C° 0.1 mm 2 m/s 751 mmHg 73%
    11:00 +9°C° 0 mm 2 m/s 751 mmHg 68%
    12:00 +10°C° 0 mm 2 m/s 751 mmHg 62%
    13:00 +12°C° 0 mm 2 m/s 750 mmHg 57%
    14:00 +12°C° 0.1 mm 2 m/s 750 mmHg 56%
    15:00 +12°C° 0.1 mm 2 m/s 750 mmHg 56%
    16:00 +12°C° 0.1 mm 2 m/s 750 mmHg 56%
    17:00 +10°C° 0.1 mm 2 m/s 750 mmHg 61%
    18:00 +9°C° 0.1 mm 2 m/s 750 mmHg 67%
    19:00 +8°C° 0.1 mm 2 m/s 750 mmHg 72%
    20:00 +9°C° 0 mm 1 m/s 751 mmHg 75%
    21:00 +8°C° 0 mm 1 m/s 751 mmHg 78%
    22:00 +7°C° 0 mm 1 m/s 751 mmHg 81%
    23:00 +7°C° 0 mm 1 m/s 751 mmHg 83%

    29 Março, Sexta-feira

    Tempo Temperatura Precipitação Vento Pressão Humidade
    00:00 +6°C° 0 mm 1 m/s 751 mmHg 85%
    01:00 +5°C° 0 mm 0 m/s 751 mmHg 86%
    02:00 +4°C° 0 mm 0 m/s 751 mmHg 87%
    03:00 +4°C° 0 mm 0 m/s 751 mmHg 87%
    04:00 +4°C° 0 mm 0 m/s 751 mmHg 88%
    05:00 +4°C° 0 mm 0 m/s 751 mmHg 85%
    06:00 +5°C° 0 mm 0 m/s 752 mmHg 82%
    07:00 +6°C° 0 mm 0 m/s 752 mmHg 79%
    08:00 +7°C° 0 mm 0 m/s 752 mmHg 72%
    09:00 +9°C° 0 mm 0 m/s 752 mmHg 65%
    10:00 +11°C° 0 mm 0 m/s 752 mmHg 58%
    11:00 +12°C° 0 mm 1 m/s 752 mmHg 54%
    12:00 +13°C° 0 mm 1 m/s 751 mmHg 50%
    13:00 +14°C° 0 mm 1 m/s 751 mmHg 46%
    14:00 +14°C° 0 mm 1 m/s 751 mmHg 45%
    15:00 +14°C° 0 mm 1 m/s 750 mmHg 44%
    16:00 +14°C° 0 mm 1 m/s 750 mmHg 43%
    17:00 +13°C° 0 mm 1 m/s 750 mmHg 47%
    18:00 +11°C° 0 mm 1 m/s 750 mmHg 51%
    19:00 +9°C° 0 mm 0 m/s 750 mmHg 55%
    20:00 +9°C° 0 mm 0 m/s 750 mmHg 57%
    21:00 +8°C° 0 mm 0 m/s 750 mmHg 59%
    22:00 +7°C° 0 mm 0 m/s 750 mmHg 61%
    23:00 +7°C° 0 mm 0 m/s 750 mmHg 63%
    Mostrar mais